Flag for Djibouti Weather past 2 weeks in Djibouti, Djibouti

Now
86 °F

Passing clouds.


Feels Like: 87 °F
Forecast: 82 / 97 °F
Wind: 5 mph from Southeast

Location: Aden

Current Time: Aug 21, 2014 at 2:03:09 AM

Latest Report: Aug 21, 2014 at 1:00 AM


Visibility: N/A

Pressure: 29.65 "Hg

Humidity: 49%

Dew point: 64 °F

Location of DjiboutiLocation

Historic Weather in Djibouti — Graph

°F

Djibouti temperature yesterday

Maximum temperature yesterday: 97 °F (at 12:00 PM)
Minimum temperature yesterday: 86 °F (at 2:00 AM)
Average temperature yesterday: 91 °F

Past Weeks' High & Low Weather Summary

 TemperatureHumidityPressure
High99 °F (Aug 8, 4:00 PM)94% (Aug 19, 5:00 AM)29.80 "Hg (Aug 19, 5:00 AM)
Low73 °F (Aug 6, 11:00 AM)22% (Aug 17, 6:00 PM)29.47 "Hg (Aug 6, 4:00 PM)
Average90 °F50%29.62 "Hg
* Reported Aug 6 1:00 AM — Aug 21 1:00 AM, Djibouti, Weather by CustomWeather, © 2014

Note: Actual official high and low records may vary slightly from our data, if they occured in-between our weather recording intervals... More about our weather records

Advertising

Djibouti weather history for previous 24 hours

 ConditionsComfort  
Time TempWeatherWind HumidityBarometerVisibility
1:00 AM
Aug 21
86 °FPassing clouds.5 mph49%29.65 "HgN/A
12:00 AM88 °FPassing clouds.No wind52%29.68 "HgN/A
11:00 PM
Aug 20
88 °FPassing clouds.2 mph55%29.68 "HgN/A
10:00 PM88 °FPassing clouds.6 mph49%29.68 "HgN/A
9:00 PM90 °FPassing clouds.6 mph43%29.68 "HgN/A
8:00 PM91 °FPassing clouds.2 mph46%29.68 "HgN/A
7:00 PM93 °FPassing clouds.6 mph41%29.65 "HgN/A
6:00 PM95 °FPassing clouds.5 mph28%29.65 "HgN/A
5:00 PM97 °FPassing clouds.6 mph27%29.62 "HgN/A
4:00 PM97 °FPassing clouds.6 mph27%29.65 "HgN/A
3:00 PM95 °FPassing clouds.10 mph32%29.65 "HgN/A
2:00 PM97 °FSunny.10 mph32%29.68 "Hg10 mi
1:00 PM97 °FPassing clouds.7 mph30%29.71 "HgN/A
12:00 PM97 °FPassing clouds.3 mph32%29.77 "HgN/A
11:00 AM95 °FPassing clouds.2 mph44%29.77 "HgN/A
10:00 AM91 °FScattered clouds.17 mph56%29.77 "HgN/A
9:00 AM90 °FScattered clouds.9 mph63%29.80 "Hg5 mi
8:00 AM90 °FClear.10 mph63%29.77 "Hg5 mi
7:00 AM88 °FScattered clouds.6 mph66%29.77 "Hg5 mi
6:00 AM86 °FScattered clouds.6 mph70%29.74 "Hg4 mi
5:00 AM86 °FPassing clouds.5 mph70%29.74 "Hg4 mi
4:00 AM86 °FWarm.3 mph70%29.71 "HgN/A
3:00 AM88 °FPassing clouds.9 mph70%29.71 "Hg4 mi
2:00 AM86 °FClear.5 mph70%29.68 "Hg4 mi
Weather by CustomWeather, © 2014

See weather overviewHow to use our weather pages